,

(GMT )
Farnborough

Weather History for EGLF - November, 2012

Change the Weather History Date:

Sunday, November 11, 2012

  Actual Average Record
Temperature  
Mean Temperature 40 °F -  
Max Temperature 50 °F - - ()
Min Temperature 30 °F - - ()
Degree Days  
Heating Degree Days 25    
Moisture  
Dew Point 37 °F    
Average Humidity 84    
Maximum Humidity 100    
Minimum Humidity 47    
Precipitation  
Precipitation 0.01 in - - ()
Sea Level Pressure  
Sea Level Pressure 29.94 in    
Wind  
Wind Speed 3 mph ()    
Max Wind Speed 7 mph    
Max Gust Speed -    
Visibility 6.7 miles    
Events      
T = Trace of Precipitation, MM = Missing Value Source: Averaged Metar Reports

Daily Weather History Graph

Daily Weather History Graph

Search for Another Location

Airport or City:

Trip Planner

Search our weather history database for the weather conditions in past years. The results will help you decide how hot, cold, wet, or windy it might be!

Date:

Astronomy

Nov. 11, 2012 Rise Set
Actual Time 7:14 AM GMT 4:19 PM GMT
Civil Twilight 6:37 AM GMT 4:55 PM GMT
Nautical Twilight 5:57 AM GMT 5:36 PM GMT
Astronomical Twilight 5:18 AM GMT 6:14 PM GMT
Moon 3:54 AM GMT (11/11) 2:47 PM GMT (11/11)
Length of Visible Light 10h 18m
Length of Day
9h 05m
Waning Crescent, 8% of the Moon is Illuminated
Nov 11
Waning Crescent
Nov 13
New
Nov 20
First Quarter
Nov 28
Full
Dec 6
Last Quarter

Hourly Weather History & Observations

Time (GMT) Temp. Windchill Dew Point Humidity Pressure Visibility Wind Dir Wind Speed Gust Speed Precip Events Conditions
2:50 AM 34 °F - 33 °F 95% 29.67 in 2 mi NNE 1.2 mph - -   Scattered Clouds
5:50 AM 30 °F - 30 °F 98% 29.77 in 1 mi ESE 1.2 mph - -   Scattered Clouds
7:50 AM 30.2 °F - 30.2 °F 100% 29.83 in 3.1 mi East 2.3 mph - N/A   Mist
8:20 AM 33.8 °F - 33.8 °F 100% 29.83 in 2.8 mi Calm Calm - N/A   Mist
8:50 AM 36 °F - 35 °F 96% 29.84 in 3 mi SW 1.2 mph - -  
8:50 AM 35.6 °F - 35.6 °F 100% 29.83 in 4.3 mi Calm Calm - N/A   Unknown
9:20 AM 39.2 °F 35.9 °F 39.2 °F 100% 29.86 in - West 4.6 mph - N/A   Clear
9:50 AM 41.0 °F 38.0 °F 39.2 °F 93% 29.86 in - West 4.6 mph - N/A   Clear
10:20 AM 42.8 °F 40.1 °F 41.0 °F 93% 29.89 in - WNW 4.6 mph - N/A   Clear
10:50 AM 44.6 °F 42.2 °F 41.0 °F 87% 29.89 in - WNW 4.6 mph - N/A   Clear
11:20 AM 46.4 °F 43.5 °F 41.0 °F 81% 29.89 in - NW 5.8 mph - N/A   Clear
11:50 AM 47 °F - 40 °F 69% 29.92 in 16 mi West 5.8 mph - -  
11:50 AM 46.4 °F 43.5 °F 41.0 °F 81% 29.92 in 6.2 mi WNW 5.8 mph - N/A   Partly Cloudy
12:20 PM 48.2 °F - 41.0 °F 76% 29.92 in 6.2 mi West 5.8 mph - N/A   Partly Cloudy
12:50 PM 46.4 °F 44.3 °F 39.2 °F 76% 29.92 in 6.2 mi WNW 4.6 mph - N/A   Partly Cloudy
1:20 PM 50.0 °F - 39.2 °F 66% 29.92 in 6.2 mi West 5.8 mph - N/A   Partly Cloudy
1:50 PM 50.0 °F - 37.4 °F 62% 29.92 in 6.2 mi West 6.9 mph - N/A   Partly Cloudy
2:20 PM 50.0 °F - 37.4 °F 62% 29.95 in 6.2 mi WSW 6.9 mph - N/A   Partly Cloudy
2:50 PM 49 °F - 35 °F 47% 29.98 in 16 mi WNW 6.9 mph - -  
2:50 PM 50.0 °F - 37.4 °F 62% 29.98 in 6.2 mi West 5.8 mph - N/A   Partly Cloudy
3:20 PM 48.2 °F - 35.6 °F 62% 29.98 in 6.2 mi WSW 6.9 mph - N/A   Partly Cloudy
3:50 PM 48.2 °F - 35.6 °F 62% 29.98 in 6.2 mi West 4.6 mph - N/A   Partly Cloudy
4:20 PM 41.0 °F 38.0 °F 37.4 °F 87% 30.01 in 6.2 mi SSW 4.6 mph - N/A   Partly Cloudy
4:50 PM 39.2 °F 35.0 °F 35.6 °F 87% 30.01 in - SW 5.8 mph - N/A   Clear
5:20 PM 41.0 °F 37.1 °F 37.4 °F 87% 30.04 in - WSW 5.8 mph - N/A   Clear
5:50 PM 36 °F - 34 °F 89% 30.05 in 17 mi WSW 4.6 mph - -  
5:50 PM 37.4 °F 32.8 °F 33.8 °F 87% 30.04 in - WSW 5.8 mph - N/A   Clear
6:20 PM 37.4 °F 33.8 °F 35.6 °F 93% 30.06 in - WSW 4.6 mph - N/A   Clear
6:50 PM 35.6 °F 30.7 °F 33.8 °F 93% 30.06 in - SW 5.8 mph - N/A   Clear
7:20 PM 37.4 °F - 37.4 °F 100% 30.06 in - Calm Calm - N/A   Clear
8:50 PM 37 °F - 35 °F 90% 30.10 in 10 mi Calm Calm - -   Scattered Clouds
11:50 PM 36 °F - 35 °F 95% 30.13 in 3 mi South 1.2 mph - -   Scattered Clouds